DW7995 Weather Reports


Display with metric or nautical units.
time (UTC)temp
F
wind
direction
speed
MPH
gust
MPH
rain 1hr
in
rain 24hr
in
rain mn
in
humidity
%
barometer
mb
20260831080104 73 140 10.0 19.0 0.00 0.00 0.00 56 1021.2
20260831075538 73 203 7.0 20.0 0.00 0.00 0.00 56 1021.2
20260831075042 73 186 7.0 20.0 0.00 0.00 0.00 56 1021.2
20260831074602 73 169 5.0 20.0 0.00 0.00 0.00 56 1021.2
20260831074039 73 283 7.0 18.0 0.00 0.00 0.00 56 1021.2
20260831073539 73 127 7.0 17.0 0.00 0.00 0.00 56 1021.2
20260831073102 73 251 7.0 17.0 0.00 0.00 0.00 56 1021.2
20260831072538 73 199 5.0 13.0 0.00 0.00 0.00 56 1021.2
20260831072038 73 255 6.0 18.0 0.00 0.00 0.00 55 1021.2
20260831071603 73 212 6.0 18.0 0.00 0.00 0.00 56 1021.2
20260831071038 72 234 2.0 15.0 0.00 0.00 0.00 57 1021.2
20260831070538 71 0 5.0 13.0 0.00 0.00 0.00 58 1021.2
20260831070101 70 117 3.0 7.0 0.00 0.00 0.00 60 1021.2
20260831065538 70 0 0.0 4.0 0.00 0.00 0.00 59 1021.2
20260831065037 70 0 0.0 9.0 0.00 0.00 0.00 59 1021.2
20260831064558 70 0 0.0 9.0 0.00 0.00 0.00 60 1021.2
20260831064039 70 12 0.0 6.0 0.00 0.00 0.00 60 1021.2
20260831063539 70 0 0.0 6.0 0.00 0.00 0.00 60 1021.2
20260831063053 70 0 0.0 3.0 0.00 0.00 0.00 59 1021.2
20260831062539 70 0 0.0 4.0 0.00 0.00 0.00 59 1021.2
20260831062039 70 0 0.0 4.0 0.00 0.00 0.00 59 1021.2
20260831061607 71 0 0.0 4.0 0.00 0.00 0.00 59 1021.2
20260831061039 71 60 0.0 3.0 0.00 0.00 0.00 58 1021.2
20260831060538 71 0 0.0 3.0 0.00 0.00 0.00 57 1021.2
20260831060109 72 0 0.0 6.0 0.00 0.00 0.00 57 1021.2
20260831055538 72 0 0.0 6.0 0.00 0.00 0.00 56 1021.2
20260831055038 72 172 0.0 13.0 0.00 0.00 0.00 56 1021.2
20260831054553 72 0 3.0 13.0 0.00 0.00 0.00 56 1021.2
20260831054040 72 0 0.0 2.0 0.00 0.00 0.00 56 1021.2
20260831053539 72 301 0.0 2.0 0.00 0.00 0.00 56 1021.2
20260831053050 72 0 0.0 2.0 0.00 0.00 0.00 55 1021.2
20260831052540 73 0 0.0 7.0 0.00 0.00 0.00 54 1021.2
20260831052040 73 0 1.0 9.0 0.00 0.00 0.00 54 1021.2
20260831051613 73 0 2.0 9.0 0.00 0.00 0.00 53 1021.2
20260831051038 73 94 2.0 9.0 0.00 0.00 0.00 54 1021.2
20260831050539 73 0 1.0 7.0 0.00 0.00 0.00 54 1021.2
20260831050057 73 0 0.0 8.0 0.00 0.00 0.00 53 1021.2
20260831045539 74 42 2.0 8.0 0.00 0.00 0.00 53 1021.2
20260831045039 74 0 0.0 8.0 0.00 0.00 0.00 53 1021.2
20260831044601 74 0 2.0 8.0 0.00 0.00 0.00 52 1021.2
20260831044041 74 0 0.0 7.0 0.00 0.00 0.00 53 1021.2
20260831043538 74 0 1.0 6.0 0.00 0.00 0.00 52 1021.2
20260831043059 74 0 0.0 7.0 0.00 0.00 0.00 53 1021.2
20260831042538 74 0 1.0 7.0 0.00 0.00 0.00 53 1021.2
20260831042038 74 0 0.0 6.0 0.00 0.00 0.00 53 1021.2
20260831041600 74 0 1.0 11.0 0.00 0.00 0.00 53 1021.2
20260831041041 74 0 2.0 11.0 0.00 0.00 0.00 53 1021.2
20260831040540 74 0 0.0 1.0 0.00 0.00 0.00 54 1021.2
20260831040104 74 0 0.0 7.0 0.00 0.00 0.00 53 1021.2
20260831035539 74 0 0.0 7.0 0.00 0.00 0.00 53 1021.2
20260831035038 74 122 1.0 7.0 0.00 0.00 0.00 54 1021.2
20260831034601 74 41 0.0 7.0 0.00 0.00 0.00 54 1021.2
20260831034038 75 0 1.0 7.0 0.00 0.00 0.00 54 1021.2
20260831033538 74 68 0.0 9.0 0.00 0.00 0.00 54 1021.2
20260831033056 75 0 1.0 9.0 0.00 0.00 0.00 53 1021.2
20260831032538 74 0 0.0 6.0 0.00 0.00 0.00 53 1021.2
20260831032038 74 0 1.0 6.0 0.00 0.00 0.00 54 1021.2
20260831031550 72 0 0.0 6.0 0.00 0.00 0.00 57 1021.2
20260831031038 69 311 0.0 6.0 0.00 0.00 0.00 61 1021.2
20260831030538 68 0 0.0 1.0 0.00 0.00 0.00 60 1021.2
20260831030114 68 0 0.0 0.0 0.00 0.00 0.00 60 1021.2
20260831025538 68 0 0.0 0.0 0.00 0.00 0.00 59 1021.2
20260831025038 68 0 0.0 0.0 0.00 0.00 0.00 59 1021.2
20260831024636 69 0 0.0 0.0 0.00 0.00 0.00 57 1021.2
20260831024038 70 0 0.0 0.0 0.00 0.00 0.00 56 1021.2
20260831023537 70 0 0.0 0.0 0.00 0.00 0.00 56 1021.2
20260831023050 71 0 0.0 0.0 0.00 0.00 0.00 55 1021.2
20260831022539 72 0 0.0 0.0 0.00 0.00 0.00 54 1021.2
20260831022040 72 0 0.0 2.0 0.00 0.00 0.00 54 1021.2
20260831021603 73 0 0.0 2.0 0.00 0.00 0.00 54 1021.2
20260831021038 73 0 0.0 2.0 0.00 0.00 0.00 53 1021.2
20260831020539 73 0 0.0 0.0 0.00 0.00 0.00 52 1021.2
20260831020059 74 0 0.0 0.0 0.00 0.00 0.00 51 1021.2
20260831015538 74 0 0.0 0.0 0.00 0.00 0.00 51 1021.2
20260831015037 75 0 0.0 0.0 0.00 0.00 0.00 50 1021.2
20260831014551 75 0 0.0 0.0 0.00 0.00 0.00 49 1021.2
20260831014039 76 0 0.0 0.0 0.00 0.00 0.00 48 1021.2
20260831013538 77 0 0.0 3.0 0.00 0.00 0.00 47 1021.2
20260831013113 78 0 0.0 3.0 0.00 0.00 0.00 46 1021.2
20260831012539 78 0 0.0 2.0 0.00 0.00 0.00 46 1021.2
20260831012039 79 0 0.0 2.0 0.00 0.00 0.00 46 1021.2
20260831011605 79 0 0.0 0.0 0.00 0.00 0.00 45 1021.2
20260831011038 79 0 0.0 0.0 0.00 0.00 0.00 46 1021.2
20260831010538 79 0 0.0 0.0 0.00 0.00 0.00 45 1021.2
20260831010124 79 0 0.0 4.0 0.00 0.00 0.00 44 1021.2
20260831005543 78 0 0.0 13.0 0.00 0.00 0.00 45 1021.2
20260831005039 78 0 2.0 13.0 0.00 0.00 0.00 47 1021.2
20260831004551 78 209 2.0 9.0 0.00 0.00 0.00 48 1021.2
20260831004039 78 0 0.0 10.0 0.00 0.00 0.00 47 1021.2
20260831003542 78 256 2.0 13.0 0.00 0.00 0.00 46 1021.2
20260831003059 80 0 4.0 13.0 0.00 0.00 0.00 44 1021.2
20260831002539 81 238 4.0 13.0 0.00 0.00 0.00 43 1021.2
20260831002039 83 63 0.0 6.0 0.00 0.00 0.00 40 1021.2
20260831001555 83 233 0.0 3.0 0.00 0.00 0.00 39 1021.2
20260831001039 83 217 0.0 3.0 0.00 0.00 0.00 39 1021.2
20260831000539 84 0 0.0 3.0 0.00 0.00 0.00 38 1021.2
20260831000055 85 299 0.0 3.0 0.00 0.00 0.00 38 1021.2
20260830235541 85 0 0.0 0.0 0.00 0.00 0.00 37 1021.2
20260830235041 84 0 0.0 0.0 0.00 0.00 0.00 38 1021.2
20260830234608 83 0 0.0 0.0 0.00 0.00 0.00 40 1021.2
20260830234039 83 0 0.0 4.0 0.00 0.00 0.00 39 1021.2
20260830233539 83 0 0.0 4.0 0.00 0.00 0.00 38 1021.2
20260830233057 84 0 0.0 3.0 0.00 0.00 0.00 38 1021.2
20260830232541 84 285 1.0 3.0 0.00 0.00 0.00 38 1021.2
20260830232040 83 0 0.0 3.0 0.00 0.00 0.00 39 1021.2
20260830231602 82 0 0.0 3.0 0.00 0.00 0.00 40 1021.2
20260830231043 82 0 0.0 5.0 0.00 0.00 0.00 41 1021.2
20260830230540 81 0 0.0 5.0 0.00 0.00 0.00 41 1021.2
20260830225539 81 323 1.0 12.0 0.00 0.00 0.00 42 1021.2
20260830225039 81 0 2.0 12.0 0.00 0.00 0.00 42 1021.2
20260830224601 82 277 3.0 11.0 0.00 0.00 0.00 42 1021.2
20260830224041 83 350 0.0 9.0 0.00 0.00 0.00 40 1021.2
20260830223541 83 0 2.0 11.0 0.00 0.00 0.00 40 1021.2
20260830223058 84 73 5.0 11.0 0.00 0.00 0.00 38 1021.2
20260830222539 85 76 0.0 5.0 0.00 0.00 0.00 36 1021.2
20260830222038 85 0 0.0 6.0 0.00 0.00 0.00 36 1021.2
20260830221551 85 72 2.0 8.0 0.00 0.00 0.00 36 1021.2
20260830221040 86 79 2.0 8.0 0.00 0.00 0.00 36 1021.2
20260830220540 85 56 3.0 8.0 0.00 0.00 0.00 36 1021.2
20260830220103 86 63 2.0 7.0 0.00 0.00 0.00 36 1021.2
20260830215540 85 0 0.0 11.0 0.00 0.00 0.00 36 1021.2
20260830215039 86 72 4.0 11.0 0.00 0.00 0.00 35 1021.2
20260830214554 86 0 0.0 7.0 0.00 0.00 0.00 35 1021.2
20260830214039 86 60 1.0 7.0 0.00 0.00 0.00 35 1021.2
20260830213541 85 85 1.0 4.0 0.00 0.00 0.00 35 1021.2
20260830213053 85 0 0.0 6.0 0.00 0.00 0.00 37 1021.2
20260830212540 84 0 0.0 6.0 0.00 0.00 0.00 36 1021.2
20260830212040 84 0 0.0 6.0 0.00 0.00 0.00 36 1021.2
20260830211602 84 0 0.0 6.0 0.00 0.00 0.00 37 1021.2
20260830211040 84 0 1.0 6.0 0.00 0.00 0.00 37 1021.2
20260830210540 84 65 0.0 7.0 0.00 0.00 0.00 37 1021.2
20260830210101 84 0 1.0 7.0 0.00 0.00 0.00 37 1021.2
20260830205540 85 70 1.0 4.0 0.00 0.00 0.00 37 1021.2
20260830205044 85 0 0.0 4.0 0.00 0.00 0.00 37 1021.2
20260830204553 84 0 1.0 4.0 0.00 0.00 0.00 37 1021.2
20260830204043 84 0 0.0 6.0 0.00 0.00 0.00 37 1021.2
20260830203542 84 0 2.0 6.0 0.00 0.00 0.00 37 1021.2
20260830203122 85 0 2.0 8.0 0.00 0.00 0.00 37 1021.2
20260830202540 85 0 0.0 11.0 0.00 0.00 0.00 38 1021.2
20260830202040 85 320 1.0 11.0 0.00 0.00 0.00 38 1021.2
20260830201615 86 310 2.0 12.0 0.00 0.00 0.00 37 1021.2
20260830201041 86 71 4.0 12.0 0.00 0.00 0.00 38 1021.2
20260830200539 84 85 1.0 7.0 0.00 0.00 0.00 38 1021.2
20260830200057 85 108 1.0 5.0 0.00 0.00 0.00 37 1021.2
20260830195540 84 0 0.0 6.0 0.00 0.00 0.00 38 1021.2
20260830195042 84 146 0.0 6.0 0.00 0.00 0.00 38 1021.2
20260830194553 84 0 0.0 6.0 0.00 0.00 0.00 38 1021.2
20260830194039 84 0 1.0 10.0 0.00 0.00 0.00 38 1021.2
20260830193540 84 51 2.0 10.0 0.00 0.00 0.00 38 1021.2
20260830193106 84 72 4.0 10.0 0.00 0.00 0.00 38 1021.2
20260830192539 84 66 3.0 6.0 0.00 0.00 0.00 38 1021.2
20260830192039 84 0 1.0 10.0 0.00 0.00 0.00 38 1021.2
20260830191603 85 97 5.0 10.0 0.00 0.00 0.00 37 1021.2
20260830191039 85 41 1.0 6.0 0.00 0.00 0.00 37 1021.2
20260830190539 84 54 1.0 6.0 0.00 0.00 0.00 38 1021.2
20260830190053 84 0 0.0 1.0 0.00 0.00 0.00 37 1021.2
20260830185540 84 0 0.0 1.0 0.00 0.00 0.00 37 1021.2
20260830185041 84 0 0.0 1.0 0.00 0.00 0.00 36 1021.2
20260830184559 84 0 0.0 8.0 0.00 0.00 0.00 37 1021.2
20260830184039 84 297 0.0 8.0 0.00 0.00 0.00 37 1021.2
20260830183539 84 0 1.0 17.0 0.00 0.00 0.00 37 1021.2
20260830183110 84 0 2.0 17.0 0.00 0.00 0.00 37 1021.2
20260830182539 84 193 3.0 7.0 0.00 0.00 0.00 37 1021.2
20260830182039 85 0 0.0 7.0 0.00 0.00 0.00 37 1021.2
20260830181620 86 0 2.0 7.0 0.00 0.00 0.00 37 1021.2
20260830181039 86 214 0.0 16.0 0.00 0.00 0.00 37 1021.2
20260830180540 86 98 4.0 16.0 0.00 0.00 0.00 37 1021.2
20260830180109 85 88 2.0 7.0 0.00 0.00 0.00 40 1021.2
20260830175540 83 105 1.0 7.0 0.00 0.00 0.00 41 1021.2
20260830175040 84 69 0.0 7.0 0.00 0.00 0.00 41 1021.2
20260830174611 83 140 1.0 7.0 0.00 0.00 0.00 41 1021.2
20260830174043 83 72 3.0 7.0 0.00 0.00 0.00 42 1021.2
20260830173543 83 179 2.0 7.0 0.00 0.00 0.00 42 1021.2
20260830173111 83 0 3.0 7.0 0.00 0.00 0.00 39 1021.2
20260830172538 82 0 1.0 5.0 0.00 0.00 0.00 38 1021.2
20260830172038 82 0 0.0 5.0 0.00 0.00 0.00 40 1021.2
20260830171557 82 0 0.0 5.0 0.00 0.00 0.00 40 1021.2
20260830171038 82 55 0.0 6.0 0.00 0.00 0.00 40 1021.2
20260830170540 83 0 1.0 6.0 0.00 0.00 0.00 39 1021.2
20260830170100 83 248 0.0 6.0 0.00 0.00 0.00 39 1021.2
20260830165538 83 288 1.0 23.0 0.00 0.00 0.00 40 1021.2
20260830165040 84 270 4.0 23.0 0.00 0.00 0.00 38 1021.2
20260830164619 85 201 6.0 13.0 0.00 0.00 0.00 38 1021.2
20260830164037 85 206 0.0 10.0 0.00 0.00 0.00 38 1021.2
20260830163538 84 203 2.0 10.0 0.00 0.00 0.00 42 1021.2
20260830163112 84 120 1.0 13.0 0.00 0.00 0.00 43 1021.2
20260830162539 82 154 3.0 13.0 0.00 0.00 0.00 46 1021.2
20260830162041 83 153 6.0 13.0 0.00 0.00 0.00 44 1021.2
20260830161553 83 141 3.0 11.0 0.00 0.00 0.00 45 1021.2
20260830161037 82 82 5.0 11.0 0.00 0.00 0.00 45 1021.2
20260830160537 83 141 0.0 9.0 0.00 0.00 0.00 45 1021.2
20260830160105 82 158 5.0 9.0 0.00 0.00 0.00 43 1021.2
20260830155537 82 100 1.0 7.0 0.00 0.00 0.00 46 1021.2
20260830155038 81 237 3.0 7.0 0.00 0.00 0.00 48 1021.2
20260830154601 80 113 3.0 11.0 0.00 0.00 0.00 50 1021.2
20260830154038 80 60 4.0 11.0 0.00 0.00 0.00 50 1021.2
20260830153538 79 140 4.0 11.0 0.00 0.00 0.00 51 1021.2
20260830153056 79 72 3.0 10.0 0.00 0.00 0.00 51 1021.2
20260830152538 79 155 2.0 15.0 0.00 0.00 0.00 50 1021.2
20260830152037 78 63 5.0 15.0 0.00 0.00 0.00 52 1021.2
20260830151601 78 65 4.0 10.0 0.00 0.00 0.00 53 1021.2
20260830151037 79 86 3.0 7.0 0.00 0.00 0.00 52 1021.2
20260830150539 78 83 2.0 6.0 0.00 0.00 0.00 53 1021.2
20260830150101 77 127 1.0 6.0 0.00 0.00 0.00 54 1021.2
20260830145538 77 142 3.0 7.0 0.00 0.00 0.00 54 1021.2
20260830145043 77 164 3.0 7.0 0.00 0.00 0.00 54 1021.2
20260830144604 77 0 3.0 7.0 0.00 0.00 0.00 55 1021.2
20260830144038 76 0 1.0 6.0 0.00 0.00 0.00 56 1021.2
20260830143538 76 113 1.0 5.0 0.00 0.00 0.00 55 1021.2
20260830143115 76 138 2.0 5.0 0.00 0.00 0.00 56 1021.2
20260830142538 75 125 0.0 8.0 0.00 0.00 0.00 56 1021.2
20260830142039 74 0 3.0 8.0 0.00 0.00 0.00 58 1021.2
20260830141602 74 133 1.0 5.0 0.00 0.00 0.00 58 1021.2
20260830141040 74 130 1.0 5.0 0.00 0.00 0.00 60 1021.2
20260830140539 73 110 1.0 5.0 0.00 0.00 0.00 60 1021.2
20260830140104 73 0 0.0 3.0 0.00 0.00 0.00 61 1021.2
20260830135539 72 95 0.0 1.0 0.00 0.00 0.00 62 1021.2
20260830135040 71 0 0.0 0.0 0.00 0.00 0.00 64 1021.2
20260830134601 69 0 0.0 0.0 0.00 0.00 0.00 67 1021.2
20260830134043 67 0 0.0 0.0 0.00 0.00 0.00 70 1021.2
20260830133539 66 0 0.0 0.0 0.00 0.00 0.00 71 1021.2
20260830133139 65 0 0.0 0.0 0.00 0.00 0.00 73 1021.2
20260830132543 63 0 0.0 0.0 0.00 0.00 0.00 76 1021.2
20260830132040 61 0 0.0 0.0 0.00 0.00 0.00 79 1021.2
20260830131616 60 0 0.0 0.0 0.00 0.00 0.00 80 1021.2
20260830131040 58 0 0.0 0.0 0.00 0.00 0.00 80 1021.2
20260830130539 58 0 0.0 0.0 0.00 0.00 0.00 81 1021.2
20260830130104 57 0 0.0 0.0 0.00 0.00 0.00 82 1021.2
20260830125539 57 0 0.0 0.0 0.00 0.00 0.00 81 1021.2
20260830125040 57 0 0.0 0.0 0.00 0.00 0.00 80 1021.2
20260830124611 57 0 0.0 0.0 0.00 0.00 0.00 80 1021.2
20260830124039 58 0 0.0 0.0 0.00 0.00 0.00 79 1021.2
20260830123539 58 0 0.0 0.0 0.00 0.00 0.00 79 1021.2
20260830123107 58 0 0.0 0.0 0.00 0.00 0.00 81 1021.2
20260830122539 58 0 0.0 0.0 0.00 0.00 0.00 78 1021.2
20260830122040 59 0 0.0 0.0 0.00 0.00 0.00 78 1021.2
20260830121600 59 0 0.0 0.0 0.00 0.00 0.00 78 1021.2
20260830121040 59 0 0.0 0.0 0.00 0.00 0.00 78 1021.2
20260830120540 60 0 0.0 0.0 0.00 0.00 0.00 77 1021.2
20260830115540 61 0 0.0 0.0 0.00 0.00 0.00 75 1021.2
20260830115040 62 0 0.0 0.0 0.00 0.00 0.00 74 1021.2
20260830114619 63 0 0.0 0.0 0.00 0.00 0.00 74 1021.2
20260830114040 63 0 0.0 0.0 0.00 0.00 0.00 71 1021.2
20260830113539 63 0 0.0 0.0 0.00 0.00 0.00 75 1021.2
20260830113103 63 0 0.0 0.0 0.00 0.00 0.00 74 1021.2
20260830112539 63 0 0.0 0.0 0.00 0.00 0.00 76 1021.2
20260830112040 62 0 0.0 0.0 0.00 0.00 0.00 77 1021.2
20260830111557 62 0 0.0 0.0 0.00 0.00 0.00 75 1021.2
20260830111040 62 0 0.0 0.0 0.00 0.00 0.00 74 1021.2
20260830110541 63 0 0.0 0.0 0.00 0.00 0.00 73 1021.2
20260830105536 64 0 0.0 0.0 0.00 0.00 0.00 71 1021.2
20260830105039 65 0 0.0 0.0 0.00 0.00 0.00 71 1021.2
20260830104601 65 0 0.0 0.0 0.00 0.00 0.00 68 1021.2
20260830104042 66 0 0.0 0.0 0.00 0.00 0.00 69 1021.2
20260830103543 67 0 0.0 0.0 0.00 0.00 0.00 67 1021.2
20260830103054 68 0 0.0 0.0 0.00 0.00 0.00 66 1021.2
20260830102542 69 0 0.0 0.0 0.00 0.00 0.00 65 1021.2
20260830102043 69 0 0.0 2.0 0.00 0.00 0.00 64 1021.2
20260830101601 70 0 0.0 7.0 0.00 0.00 0.00 63 1021.2
20260830101039 70 0 1.0 7.0 0.00 0.00 0.00 63 1021.2
20260830100543 70 0 2.0 7.0 0.00 0.00 0.00 63 1021.2
20260830095542 70 242 0.0 6.0 0.00 0.00 0.00 65 1021.2
20260830095042 69 0 0.0 5.0 0.00 0.00 0.00 65 1021.2
20260830094557 69 0 2.0 5.0 0.00 0.00 0.00 66 1021.2
20260830094040 69 0 0.0 4.0 0.00 0.00 0.00 66 1021.2
20260830093538 69 0 0.0 0.0 0.00 0.00 0.00 66 1021.2
20260830093100 69 0 0.0 0.0 0.00 0.00 0.00 65 1021.2
20260830092549 69 0 0.0 6.0 0.00 0.00 0.00 65 1021.2
20260830092039 70 0 0.0 6.0 0.00 0.00 0.00 65 1021.2
20260830091559 69 52 1.0 6.0 0.00 0.00 0.00 66 1021.2
20260830091039 70 0 0.0 6.0 0.00 0.00 0.00 65 1021.2
20260830090539 70 0 0.0 4.0 0.00 0.00 0.00 65 1021.2
20260830090100 70 0 0.0 4.0 0.00 0.00 0.00 64 1021.2
20260830085538 70 0 0.0 4.0 0.00 0.00 0.00 64 1021.2
20260830085039 71 0 0.0 6.0 0.00 0.00 0.00 64 1021.2
20260830084607 71 0 1.0 9.0 0.00 0.00 0.00 64 1021.2
20260830084042 71 0 3.0 9.0 0.00 0.00 0.00 64 1021.2
20260830083541 71 0 1.0 10.0 0.00 0.00 0.00 64 1021.2
20260830083110 71 0 1.0 12.0 0.00 0.00 0.00 64 1021.2
20260830082538 71 97 4.0 12.0 0.00 0.00 0.00 64 1021.2
20260830082042 71 0 2.0 9.0 0.00 0.00 0.00 64 1021.2
20260830081552 71 105 1.0 9.0 0.00 0.00 0.00 64 1021.2
20260830081040 71 0 0.0 12.0 0.00 0.00 0.00 63 1021.2
20260830080540 71 0 0.0 12.0 0.00 0.00 0.00 63 1021.2